This is the latest recevied weather packets stored in our database for station/object K8GLX. If no packets are shown the sender has not sent any weather packets the latest 1 day(s).
| Time | Temp. | Humidity | Pressure | Rain* | Wind** | Luminosity | Snow |
|---|---|---|---|---|---|---|---|
| 1778025694 | 9.44° C | 97% | 1008.2 hPa | 3.05 mm | 1.79 m/s, 48° | 4 W/m² | - |
| 1778025399 | 9.44° C | 97% | 1007.8 hPa | 3.05 mm | 2.24 m/s, 26° | 3 W/m² | - |
| 1778025092 | 9.44° C | 97% | 1008.2 hPa | 3.3 mm | 0.89 m/s, 104° | 5 W/m² | - |
| 1778024799 | 9.44° C | 97% | 1008.9 hPa | 3.05 mm | 0.89 m/s, 80° | 6 W/m² | - |
| 1778024599 | 9.44° C | 97% | 1008.5 hPa | 3.3 mm | 0.89 m/s, 56° | 7 W/m² | - |
| 1778024323 | 9.44° C | 97% | 1008.2 hPa | 3.3 mm | 0.89 m/s, 51° | 5 W/m² | - |
| 1778023888 | 9.44° C | 97% | 1008.9 hPa | 3.81 mm | 0.89 m/s, 73° | 9 W/m² | - |
| 1778023592 | 9.44° C | 97% | 1008.5 hPa | 4.06 mm | 0 m/s | 12 W/m² | - |
| 1778023411 | 9.44° C | 97% | 1008.5 hPa | 4.06 mm | 0 m/s | 12 W/m² | - |
| 1778023117 | 9.44° C | 97% | 1009.2 hPa | 3.81 mm | 0.45 m/s, 98° | 7 W/m² | - |
| 1778022684 | 9.44° C | 97% | 1008.5 hPa | 3.05 mm | 0 m/s | 5 W/m² | - |
| 1778022388 | 9.44° C | 97% | 1008.5 hPa | 2.79 mm | 0 m/s | 8 W/m² | - |
| 1778022081 | 9.44° C | 97% | 1008.5 hPa | 2.79 mm | 0.45 m/s, 54° | 9 W/m² | - |
| 1778021787 | 9.44° C | 97% | 1008.9 hPa | 3.05 mm | 0 m/s | 14 W/m² | - |
| 1778021479 | 9.44° C | 97% | 1008.5 hPa | 2.79 mm | 0.45 m/s, 268° | 15 W/m² | - |
| 1778021188 | 9.44° C | 97% | 1008.9 hPa | 2.79 mm | 0.89 m/s, 84° | 21 W/m² | - |
| 1778020878 | 9.44° C | 96% | 1008.9 hPa | 2.79 mm | 0.45 m/s, 291° | 13 W/m² | - |
| 1778020585 | 9.44° C | 96% | 1008.5 hPa | 2.79 mm | 0.89 m/s, 304° | 10 W/m² | - |
| 1778020276 | 9.44° C | 96% | 1008.5 hPa | 2.54 mm | 0 m/s | 16 W/m² | - |
| 1778020117 | 9.44° C | 96% | 1008.5 hPa | 2.54 mm | 0 m/s | 15 W/m² | - |
| 1778019676 | 9.44° C | 96% | 1008.5 hPa | 2.29 mm | 1.34 m/s, 310° | 15 W/m² | - |
| 1778019380 | 9.44° C | 96% | 1008.5 hPa | 2.29 mm | 0.89 m/s, 333° | 14 W/m² | - |
| 1778019074 | 9.44° C | 96% | 1008.5 hPa | 1.52 mm | 0.45 m/s, 304° | 12 W/m² | - |
| 1778018781 | 9.44° C | 96% | 1008.2 hPa | 1.52 mm | 0.89 m/s, 330° | 20 W/m² | - |
| 1778018473 | 9.44° C | 96% | 1008.5 hPa | 1.52 mm | 1.34 m/s, 309° | 22 W/m² | - |
* Rain latest hour (hover to see other rain measurements)
** Current wind speed in m/s (hover to see current wind gust speed)